{"data":{"norad_id":62444,"intl_designator":"2024-251N","name":"STARLINK-32737","alt_names":[],"object_type":"PAYLOAD","status":"ACTIVE","operator":null,"country":"US","launch_date":"2024-12-29","launch_site_code":"AFWTR","launch_vehicle":null,"mission":null,"orbit_class":"UNKNOWN","rcs_meters":null,"size_class":null,"mass_kg":null,"dimensions":null,"purposes":["comms"],"wikipedia_slug":null,"has_3d_model":false,"image_url":null,"decayed_at":null,"tle_current":{"epoch":"2026-09-21T20:46:25.915872Z","epoch_age_seconds":56584,"freshness":"FRESH","line1":"1 62444U 24251N   26264.86557773  .00014281  00000+0  43304-3 0  9994","line2":"2 62444  53.1579 139.1297 0001475  89.0496 271.0675 15.34397619 98055","mean_motion":15.34397619,"eccentricity":0.0001475,"inclination_deg":53.1579,"raan_deg":139.1297,"arg_perigee_deg":89.0496,"mean_anomaly_deg":271.0675,"bstar":0.00043304,"rev_number":9805,"period_min":93.847903709501,"perigee_km":461.70129207076,"apogee_km":463.71934202929,"semimajor_km":6840.84731705,"source":"CELESTRAK","updated_at":"2026-09-22T09:00:49.582373Z"}}}